Wind_Speed
24 25 26 26 27 26 25 23 22 22 23 24 25 26 26 26 25 25 23 22 21 21 22 22 21 21 21 20 20 20 19 18 18 17 16 16 15 14 14 13 12 11 10 10 9 9 8 8 7
27 27 28 28 29 28 26 25 24 24 25 26 27 27 27 27 27 25 24 23 23 23 23 23 23 23 23 22 22 22 21 20 20 19 18 17 17 16 15 14 13 12 11 11 11 10 10 9 8
28 29 30 31 30 29 28 27 27 27 27 28 28 29 29 29 28 27 26 25 25 24 24 25 25 25 24 24 24 23 23 22 21 21 20 19 18 18 17 16 15 14 13 12 12 12 11 10 10
30 31 33 33 31 29 30 30 30 30 30 30 30 31 31 30 29 29 28 27 26 26 26 26 26 26 26 26 25 25 24 24 23 22 22 21 20 19 19 18 17 16 15 14 14 13 13 12 11
32 33 34 35 32 32 32 33 34 34 32 32 33 33 33 32 32 31 30 29 28 27 27 28 28 28 28 27 27 27 26 26 25 24 23 23 22 21 21 20 19 18 17 16 15 15 14 14 13
34 36 37 37 34 34 34 35 35 36 35 35 36 36 35 35 35 33 32 32 31 30 29 29 30 30 29 29 29 28 28 27 27 26 25 25 24 23 22 22 21 20 19 18 17 17 16 16 15
36 38 38 38 37 36 36 37 38 38 37 37 38 39 38 38 37 36 35 35 34 33 31 31 31 32 31 31 30 30 30 29 29 29 28 27 26 25 24 23 23 22 21 20 19 19 18 17 17
37 39 39 39 39 38 38 40 40 40 40 38 40 41 40 40 40 39 38 38 37 36 34 34 33 33 33 32 32 32 31 31 31 30 30 29 28 27 26 25 24 24 23 22 21 20 20 19 18
38 40 40 40 40 40 40 41 41 42 42 41 42 43 42 42 42 42 41 40 39 38 37 36 36 35 35 34 34 33 33 33 32 32 32 31 30 29 28 27 26 25 25 24 23 22 21 20 20
38 40 40 41 41 41 42 43 43 43 43 43 44 44 44 44 44 44 43 42 42 41 40 39 38 38 37 36 35 35 34 34 34 34 33 33 32 31 30 29 28 27 26 26 25 24 22 22 21
38 39 39 40 41 41 42 43 43 44 44 44 45 45 45 46 46 46 45 44 43 43 42 42 41 40 39 38 37 37 37 36 36 36 35 35 34 33 33 32 31 29 29 28 27 26 24 24 23
36 37 37 38 40 40 41 42 42 43 44 45 47 46 46 47 47 47 47 46 46 45 45 44 43 43 42 41 40 39 39 38 38 38 37 37 36 35 35 34 33 32 31 30 29 28 27 25 24
34 35 35 36 38 39 40 42 43 42 42 45 46 47 47 47 48 48 48 48 48 47 47 47 46 45 45 44 42 41 41 41 40 40 39 39 38 37 36 36 36 34 33 32 31 30 28 27 26
33 34 34 36 36 37 40 40 41 41 42 43 45 46 47 47 48 49 49 49 49 48 48 49 49 48 47 46 45 44 43 43 43 42 41 40 39 39 38 38 37 36 35 34 33 32 30 29 28
32 33 34 34 35 36 39 39 39 40 42 43 45 46 46 47 48 49 49 50 50 50 50 50 50 50 49 48 48 46 45 45 45 44 43 42 41 40 40 39 39 38 37 36 34 33 32 31 30
32 34 34 33 35 35 38 39 38 40 42 43 44 45 46 47 49 49 50 50 52 52 51 51 51 51 50 50 50 49 47 46 47 46 45 44 43 42 42 41 40 40 39 37 36 35 33 32 32
31 32 33 33 35 36 37 38 37 39 42 43 44 45 46 47 48 49 50 50 52 52 53 53 52 52 51 51 51 51 49 49 49 48 48 46 45 45 44 43 42 41 40 39 38 37 35 34 33
31 32 32 32 34 35 35 36 36 39 41 41 42 44 44 46 46 48 49 49 52 53 52 53 53 52 52 52 52 52 51 50 50 50 49 48 47 46 45 44 43 43 42 41 40 39 37 36 35
32 34 34 33 33 34 35 36 36 38 39 39 40 41 42 44 45 47 47 48 50 52 53 53 53 53 53 53 52 52 52 52 51 51 50 49 49 48 47 46 45 44 44 42 42 41 39 38 37
33 34 35 33 34 35 36 36 35 36 38 38 38 39 40 41 42 44 44 45 47 49 52 52 52 51 52 53 52 53 53 52 52 51 50 50 50 49 48 48 47 46 45 44 43 42 41 39 38
34 35 35 35 35 36 37 37 34 33 36 37 37 38 39 39 40 42 42 43 45 47 48 48 49 50 51 52 53 53 53 53 54 53 51 51 51 50 49 49 48 47 46 45 44 42 41 40 39
34 34 36 36 36 36 36 37 32 32 33 35 35 35 37 38 39 39 41 41 43 43 44 46 47 48 49 51 52 53 53 53 52 53 52 51 51 51 50 49 49 48 46 45 45 43 42 41 40
34 34 34 34 35 35 33 36 32 31 32 32 34 34 34 36 37 37 37 39 40 40 42 43 44 45 47 49 50 51 52 53 52 52 52 51 50 51 51 49 49 48 48 46 45 44 43 42 41
33 34 34 35 35 33 31 34 32 31 31 31 32 33 33 34 34 35 35 37 38 39 41 41 43 43 45 48 50 51 51 52 52 52 52 51 50 50 51 50 49 49 49 48 46 45 44 43 42
33 33 35 35 35 33 32 32 31 30 30 30 30 30 31 33 33 34 35 36 37 39 40 41 42 43 44 46 49 50 50 52 51 51 52 52 51 50 50 51 50 49 49 48 47 46 45 44 43
33 33 33 35 36 35 32 32 31 30 30 30 29 30 30 31 32 32 33 35 36 37 38 40 41 42 43 45 48 50 50 51 52 51 52 52 52 51 49 50 50 50 49 48 48 47 46 45 44
33 33 33 35 36 35 33 32 31 29 29 30 29 29 30 30 32 33 33 34 36 37 37 38 40 41 42 44 46 48 50 50 50 50 52 52 51 51 50 50 50 50 50 49 48 48 46 45 44
34 34 34 33 35 35 35 34 32 29 28 28 29 29 29 30 31 32 34 35 35 35 36 38 40 41 43 45 46 47 48 50 49 51 51 52 50 51 50 50 50 51 50 49 49 48 47 46 45
35 35 35 35 35 36 36 34 32 30 30 29 28 28 29 30 31 31 32 34 35 35 36 37 39 41 41 43 45 45 46 48 49 51 51 51 50 50 51 49 49 50 50 49 49 48 48 47 46
37 36 36 36 36 36 38 36 30 30 29 30 29 30 30 31 31 32 34 34 34 35 37 38 39 40 41 41 43 45 45 47 48 50 51 51 51 50 50 50 48 48 49 49 48 47 48 47 46
Wind_Direction
263 261 260 259 258 258 259 260 258 254 252 251 248 247 248 248 248 248 249 247 246 245 245 245 244 244 243 243 244 245 245 246 247 248 248 249 250 253 254 255 256 258 262 266 266 268 271 273 279
265 263 261 260 259 260 261 261 259 256 254 252 251 250 249 249 250 250 249 247 246 244 243 244 244 244 244 244 244 244 244 245 246 248 248 248 250 253 255 254 253 255 259 263 265 266 268 272 277
266 264 263 262 261 262 263 261 259 256 255 254 253 252 251 251 252 251 250 248 246 244 242 243 244 244 244 245 244 244 244 245 246 247 248 248 250 252 254 253 253 255 258 262 264 265 266 270 273
267 266 264 263 263 264 263 262 259 256 255 255 254 253 252 251 251 251 250 249 248 246 243 243 244 244 244 245 245 244 244 244 245 246 248 249 250 252 253 253 253 254 257 260 263 263 265 267 270
268 267 265 264 265 265 263 261 260 258 257 256 256 255 254 253 252 251 251 250 249 247 244 243 244 244 244 244 244 244 244 245 245 246 247 248 249 251 252 253 253 253 256 259 262 262 263 264 268
268 267 266 266 266 265 264 262 261 259 257 256 257 256 255 254 252 251 251 250 250 248 245 244 243 244 245 244 244 244 244 245 245 246 246 247 248 250 251 252 252 252 255 258 261 261 261 262 266
268 268 268 268 266 265 264 261 260 259 257 257 257 256 254 253 252 251 251 250 249 249 247 245 244 244 245 245 245 244 244 244 245 246 246 247 248 248 250 251 252 252 254 256 259 260 259 261 264
269 268 268 268 267 264 261 259 258 257 257 255 256 256 254 253 252 251 250 249 249 249 248 247 245 245 245 245 245 245 244 243 244 245 246 247 247 247 248 250 251 251 252 255 257 259 258 260 263
269 268 268 268 265 263 260 259 258 257 256 254 254 255 254 253 251 250 248 248 249 249 248 247 247 246 245 245 245 245 244 244 244 245 245 247 247 247 247 249 250 250 251 253 255 258 258 259 261
270 269 269 267 265 262 260 258 257 256 256 254 254 254 254 252 251 249 248 247 248 247 247 247 246 246 245 245 245 245 245 245 244 245 245 245 246 246 247 247 249 250 250 251 254 256 258 258 260
272 271 270 267 265 263 260 259 258 258 256 256 254 254 253 252 251 249 248 246 246 246 246 246 245 245 244 245 245 245 245 246 245 245 245 245 245 246 246 246 247 249 250 251 252 255 257 258 259
274 273 271 268 265 263 261 259 258 257 259 257 255 253 252 251 250 249 247 246 245 244 245 245 244 243 243 244 244 245 245 245 245 245 245 245 245 245 245 246 247 248 250 251 252 253 255 257 259
274 274 274 271 268 264 262 261 259 258 258 257 255 253 252 250 249 249 248 247 246 245 244 244 244 243 242 242 243 244 245 245 245 244 244 245 245 245 245 245 246 247 249 250 251 252 253 256 258
278 276 275 272 271 268 265 263 262 259 257 256 254 253 251 250 249 247 247 246 245 245 245 245 244 243 242 242 242 242 243 244 244 244 244 244 244 245 245 245 245 247 248 249 250 251 252 254 256
282 279 278 274 271 270 268 265 263 260 257 258 255 253 253 251 250 248 247 246 244 243 243 244 244 242 242 241 241 241 242 243 243 243 243 244 244 245 245 246 245 245 247 248 249 250 251 253 255
286 284 283 277 273 272 269 269 265 262 260 260 258 255 254 252 251 249 248 246 244 243 242 243 243 241 241 241 241 240 240 241 242 242 242 243 244 244 245 245 245 245 246 248 249 250 251 252 253
290 289 286 280 275 274 273 271 267 263 263 262 259 257 254 251 251 250 248 247 245 243 242 241 242 241 241 241 241 241 239 240 241 242 241 242 243 244 244 244 244 245 246 247 249 249 250 251 252
295 295 290 284 281 277 276 274 270 266 266 263 259 257 256 252 251 250 248 247 245 243 242 241 240 241 241 240 240 240 238 238 239 241 241 242 242 243 243 244 244 245 245 246 248 249 250 250 251
298 297 294 289 285 281 280 278 274 267 266 265 260 259 257 254 253 251 248 247 245 244 243 241 242 240 240 239 239 238 237 238 238 240 240 241 241 242 243 243 244 245 245 245 247 249 250 250 251
302 299 297 292 287 283 280 279 277 268 264 266 264 259 257 256 253 248 246 247 247 245 244 240 240 239 239 238 238 238 237 237 238 238 238 239 240 241 242 242 243 244 244 245 245 247 249 250 251
303 301 298 295 290 283 283 281 275 270 265 265 265 262 259 257 254 250 247 248 248 246 245 241 238 238 238 237 236 237 236 236 237 237 237 238 239 240 242 242 242 242 243 243 244 246 248 250 251
303 301 299 296 291 287 285 284 277 274 272 269 267 264 260 257 255 251 249 249 249 247 246 243 239 237 237 235 235 236 235 235 237 237 238 238 238 239 240 240 241 241 241 243 244 245 247 249 251
302 300 299 297 293 288 286 286 282 279 278 274 270 264 261 259 255 251 251 251 249 246 244 243 240 237 234 233 233 234 235 234 235 236 236 236 237 238 238 239 240 240 241 242 243 245 247 249 251
300 299 298 297 294 290 289 287 285 282 282 278 272 267 263 259 256 254 252 250 247 244 243 242 240 237 234 233 233 233 234 234 234 235 235 235 234 236 237 237 238 239 240 242 243 245 247 248 250
300 300 299 297 296 292 291 287 285 283 281 278 275 269 262 258 255 253 251 249 247 245 243 242 241 238 235 234 234 233 233 233 234 234 234 234 234 234 236 237 238 238 239 241 243 245 247 248 250
299 298 299 298 298 295 289 287 286 283 282 279 276 271 265 260 257 254 251 249 248 244 243 243 241 239 237 236 234 233 233 234 234 234 234 234 233 235 235 236 236 237 238 240 242 244 247 248 249
298 299 298 297 296 294 290 287 286 283 281 278 275 271 265 260 257 254 252 249 247 244 244 243 241 238 238 236 234 233 233 234 234 233 234 233 233 234 235 235 236 236 237 240 243 244 246 247 248
295 296 296 296 296 294 293 290 290 286 281 277 274 270 266 260 256 255 254 253 249 246 246 245 243 240 240 239 236 235 234 234 233 232 233 232 233 234 234 236 237 237 237 239 242 244 246 247 248
292 292 293 293 291 291 291 291 291 287 282 277 274 269 266 262 258 256 254 253 250 249 248 247 245 242 241 241 238 237 236 236 235 234 233 233 233 234 234 235 236 236 237 240 242 243 246 247 248
289 289 289 289 289 287 286 289 290 285 280 276 272 269 266 264 261 259 256 255 254 250 248 247 245 243 241 240 240 239 238 237 236 234 233 232 233 234 235 234 236 237 237 238 241 243 245 247 248
Height
5824 5825 5826 5827 5828 5829 5830 5833 5834 5836 5836 5837 5838 5839 5840 5842 5844 5848 5848 5848 5850 5851 5852 5853 5854 5855 5857 5858 5859 5860 5862 5863 5864 5864 5865 5866 5867 5867 5868 5868 5868 5868 5868 5868 5868 5868 5868 5868 5867
5819 5820 5821 5821 5822 5823 5826 5828 5829 5831 5831 5832 5833 5834 5835 5836 5838 5841 5842 5843 5845 5846 5848 5849 5850 5852 5853 5854 5856 5857 5859 5860 5861 5862 5863 5864 5864 5865 5865 5866 5866 5866 5866 5866 5866 5866 5866 5866 5866
5812 5813 5814 5814 5815 5818 5820 5822 5824 5824 5825 5826 5827 5828 5830 5832 5833 5835 5837 5839 5840 5842 5843 5845 5846 5848 5849 5851 5852 5854 5855 5857 5858 5859 5860 5861 5862 5863 5863 5864 5864 5864 5864 5865 5864 5865 5865 5865 5865
5805 5806 5806 5808 5810 5813 5814 5815 5816 5817 5819 5820 5820 5822 5824 5826 5828 5830 5831 5833 5835 5837 5838 5840 5841 5843 5845 5846 5848 5850 5851 5853 5854 5856 5857 5858 5859 5860 5861 5861 5861 5862 5862 5862 5862 5863 5863 5863 5863
5797 5797 5797 5799 5803 5806 5807 5807 5808 5810 5812 5813 5814 5815 5817 5819 5821 5823 5825 5827 5829 5831 5833 5834 5836 5838 5840 5842 5843 5845 5847 5849 5850 5852 5853 5854 5856 5857 5857 5858 5859 5859 5860 5860 5860 5860 5860 5861 5861
5789 5789 5789 5790 5795 5798 5798 5799 5800 5802 5804 5805 5806 5808 5810 5812 5814 5816 5819 5821 5822 5825 5827 5828 5830 5832 5834 5836 5838 5840 5842 5844 5846 5847 5849 5850 5852 5853 5854 5855 5855 5856 5857 5857 5857 5858 5858 5858 5858
5780 5779 5779 5782 5785 5788 5789 5789 5791 5793 5795 5797 5797 5799 5802 5804 5806 5809 5811 5813 5816 5818 5820 5822 5824 5826 5828 5831 5833 5835 5837 5839 5841 5842 5844 5846 5847 5849 5850 5851 5852 5853 5853 5854 5854 5855 5855 5855 5855
5769 5769 5769 5772 5774 5777 5779 5779 5781 5783 5785 5788 5788 5790 5793 5796 5797 5800 5803 5805 5808 5811 5813 5815 5817 5819 5822 5824 5826 5829 5831 5833 5835 5837 5839 5841 5843 5844 5845 5847 5848 5848 5849 5850 5851 5851 5851 5852 5852
5757 5758 5759 5761 5763 5766 5767 5768 5770 5772 5774 5777 5778 5780 5783 5785 5787 5790 5793 5797 5800 5803 5805 5808 5810 5812 5815 5817 5820 5822 5824 5827 5829 5831 5833 5835 5837 5839 5840 5842 5843 5844 5845 5846 5847 5847 5848 5848 5849
5746 5746 5749 5750 5751 5753 5755 5756 5758 5760 5763 5766 5767 5769 5771 5773 5776 5780 5784 5787 5790 5794 5797 5800 5802 5805 5807 5810 5812 5815 5817 5820 5822 5825 5827 5829 5831 5833 5835 5837 5838 5839 5840 5841 5843 5843 5844 5844 5845
5735 5736 5737 5738 5738 5740 5742 5745 5746 5748 5751 5754 5756 5759 5760 5762 5765 5769 5773 5777 5780 5784 5787 5790 5794 5796 5799 5802 5805 5807 5810 5813 5815 5818 5820 5823 5825 5827 5829 5831 5833 5834 5835 5836 5838 5839 5839 5840 5840
5726 5726 5725 5726 5726 5727 5729 5732 5734 5736 5740 5742 5743 5745 5748 5750 5753 5757 5762 5766 5769 5773 5777 5780 5783 5787 5790 5793 5796 5799 5802 5805 5808 5811 5813 5816 5818 5820 5823 5825 5827 5828 5829 5831 5832 5834 5834 5835 5836
5716 5716 5715 5715 5715 5716 5717 5719 5721 5725 5727 5727 5729 5732 5735 5738 5741 5745 5749 5753 5757 5761 5765 5769 5772 5776 5780 5784 5787 5790 5793 5796 5799 5802 5805 5808 5811 5813 5816 5818 5820 5822 5823 5825 5827 5828 5829 5830 5830
5707 5706 5706 5705 5704 5705 5706 5708 5709 5713 5714 5714 5716 5719 5722 5725 5728 5732 5736 5740 5745 5749 5753 5757 5761 5765 5769 5773 5777 5780 5783 5787 5790 5793 5797 5800 5802 5805 5808 5810 5813 5815 5817 5818 5820 5822 5823 5824 5825
5699 5697 5697 5695 5693 5694 5695 5697 5698 5700 5700 5702 5704 5706 5709 5712 5714 5718 5723 5727 5731 5736 5740 5744 5748 5752 5757 5762 5766 5770 5773 5777 5780 5784 5787 5791 5794 5797 5800 5803 5805 5807 5810 5811 5813 5815 5816 5818 5819
5690 5688 5687 5687 5685 5684 5685 5686 5688 5687 5687 5689 5691 5693 5696 5698 5700 5703 5707 5712 5716 5721 5726 5731 5735 5739 5744 5749 5754 5759 5762 5766 5770 5774 5778 5781 5785 5788 5791 5794 5797 5799 5802 5804 5806 5808 5810 5811 5812
5682 5680 5678 5678 5676 5674 5673 5675 5677 5675 5675 5676 5678 5680 5682 5684 5687 5689 5692 5696 5701 5706 5712 5717 5721 5727 5732 5737 5742 5746 5751 5755 5759 5763 5767 5771 5775 5778 5782 5785 5788 5791 5794 5796 5799 5801 5802 5804 5806
5674 5671 5669 5668 5666 5665 5664 5665 5666 5665 5663 5664 5665 5666 5668 5671 5673 5675 5678 5682 5687 5692 5697 5702 5707 5713 5718 5724 5729 5734 5739 5743 5748 5752 5757 5761 5765 5768 5772 5775 5779 5782 5785 5788 5790 5793 5795 5797 5798
5666 5663 5661 5660 5657 5655 5655 5655 5656 5654 5653 5652 5653 5654 5655 5658 5660 5661 5664 5668 5673 5678 5683 5688 5693 5698 5704 5710 5716 5721 5726 5732 5736 5741 5746 5750 5754 5758 5762 5765 5769 5772 5776 5779 5782 5784 5786 5788 5790
5659 5655 5653 5652 5649 5646 5645 5646 5645 5644 5643 5642 5642 5643 5644 5646 5648 5650 5652 5656 5660 5664 5668 5673 5678 5684 5690 5696 5702 5708 5714 5719 5724 5729 5733 5737 5742 5746 5751 5755 5759 5763 5766 5769 5772 5775 5778 5780 5782
5652 5648 5645 5643 5641 5638 5636 5637 5638 5636 5634 5633 5632 5633 5634 5635 5637 5639 5642 5645 5648 5650 5654 5658 5664 5670 5675 5681 5687 5694 5700 5705 5711 5717 5721 5726 5731 5735 5740 5745 5749 5753 5756 5760 5763 5766 5769 5772 5774
5645 5641 5637 5634 5631 5629 5628 5624 5630 5628 5626 5624 5624 5624 5624 5625 5626 5629 5631 5634 5637 5640 5642 5645 5651 5657 5662 5668 5673 5680 5686 5693 5699 5704 5709 5714 5719 5724 5728 5733 5738 5742 5746 5750 5753 5756 5759 5762 5764
5637 5633 5630 5627 5623 5621 5620 5615 5619 5618 5616 5615 5615 5614 5614 5616 5617 5619 5621 5624 5627 5629 5632 5634 5639 5644 5649 5655 5661 5667 5673 5680 5686 5691 5697 5702 5707 5712 5717 5722 5727 5731 5736 5740 5743 5747 5750 5753 5755
5630 5626 5623 5620 5616 5615 5614 5609 5609 5609 5608 5607 5606 5605 5606 5607 5609 5610 5612 5614 5617 5619 5621 5624 5628 5632 5637 5643 5648 5655 5660 5667 5673 5678 5684 5689 5695 5700 5705 5710 5715 5720 5725 5729 5733 5737 5740 5743 5746
5623 5620 5615 5611 5608 5608 5606 5602 5603 5602 5600 5598 5598 5597 5597 5599 5600 5601 5603 5605 5607 5610 5612 5615 5619 5622 5627 5631 5637 5642 5648 5653 5660 5665 5671 5676 5682 5688 5693 5698 5703 5709 5714 5718 5722 5726 5730 5733 5736
5617 5613 5610 5604 5600 5599 5597 5595 5597 5594 5592 5590 5590 5589 5589 5590 5591 5592 5594 5596 5598 5601 5603 5606 5610 5613 5617 5620 5625 5630 5636 5641 5647 5653 5658 5664 5670 5676 5681 5686 5691 5697 5702 5707 5711 5715 5719 5723 5726
5609 5605 5602 5597 5592 5590 5589 5588 5589 5587 5585 5583 5583 5582 5581 5582 5583 5584 5585 5587 5589 5592 5594 5597 5600 5603 5606 5610 5614 5619 5624 5629 5635 5640 5646 5652 5658 5664 5669 5675 5680 5686 5691 5696 5700 5705 5709 5712 5716
5601 5597 5594 5589 5585 5581 5581 5580 5581 5579 5577 5576 5575 5574 5574 5574 5575 5576 5577 5578 5580 5582 5585 5587 5589 5592 5596 5599 5603 5608 5613 5618 5623 5628 5633 5640 5646 5651 5657 5663 5669 5674 5679 5685 5689 5694 5698 5702 5705
5593 5590 5585 5582 5578 5575 5571 5574 5573 5571 5569 5567 5567 5566 5566 5566 5567 5567 5568 5570 5571 5573 5575 5577 5579 5582 5586 5589 5593 5597 5602 5607 5611 5616 5622 5628 5633 5639 5645 5651 5657 5662 5668 5673 5678 5683 5687 5691 5695
5583 5581 5578 5575 5571 5567 5562 5566 5567 5563 5560 5559 5558 5558 5558 5558 5558 5559 5559 5560 5562 5563 5565 5567 5569 5572 5576 5579 5583 5587 5591 5595 5599 5604 5610 5616 5622 5627 5633 5639 5645 5651 5657 5662 5667 5671 5676 5680 5683